Regional Weather Roundup
Issued by NWS

Home | Current Version | Previous Version | Graphics & Text | Print | Product List | Glossary On
Versions: 1 2 3 4 5 6 7 8 9 10 11 12 13 14 15 16 17 18 19 20 21 22 23 24 25 26 27 28 29 30 31 32 33 34 35 36 37 38 39 40 41 42 43 44 45 46 47 48 49 50
839
ASUS43 KDMX 161501
RWRIA

WEATHER ROUNDUP FOR IOWA
NATIONAL WEATHER SERVICE DES MOINES IA
1000 AM CDT WED AUG 16 2017

NOTE: "FAIR" INDICATES FEW OR NO CLOUDS BELOW 12,000 FEET WITH NO
SIGNIFICANT WEATHER AND/OR OBSTRUCTIONS TO VISIBILITY.

* - THESE STATIONS ARE NOT NWS STATIONS...THUS NOT UNDER NWS
QUALITY CONTROL.  THEY ALSO DO NOT REPORT WEATHER SUCH
AS PRECIPITATION OR FOG.

IAZ001>003-012>014-020>022-031>034-043>046-161600-
   NORTHWEST IOWA

CITY           SKY/WX    TMP DP  RH WIND       PRES   REMARKS
CARROLL *      CLOUDY    75  72  88 SE13      29.79F
CHEROKEE *     CLOUDY    68  68 100 E8        29.82F THUNDER
DENISON *      CLOUDY    73  70  88 SE7       29.80F
LE MARS *      RAIN      68  68 100 NE8       29.79F
ORANGE CITY *  RAIN      70  70 100 E8        29.81F
SHELDON *      LGT RAIN  68  68 100 E7        29.81F
SIOUX CITY     LGT RAIN  69  69 100 E9        29.76F
SPENCER        RAIN      67  66  97 E12       29.84F FOG
STORM LAKE *   FOG       68  68 100 E8        29.83F VSB 1/2
$$

IAZ055>058-069>071-079>083-090>094-161600-
   SOUTHWEST IOWA

CITY           SKY/WX    TMP DP  RH WIND       PRES   REMARKS
ATLANTIC *     CLOUDY    75  70  83 S10       29.79F
AUDUBON *      CLOUDY    73  70  88 SE10      29.80F
CLARINDA *     CLOUDY    73  73 100 S12G17    29.83S FOG
COUNCIL BLFS * CLOUDY    73  73 100 S12       29.78S
CRESTON *      CLOUDY    73  72  94 SE13      29.84F
HARLAN  *      PTSUNNY   73  72  94 S13G18    29.82S
LAMONI         CLOUDY    74  72  93 S9G20     29.86S
RED OAK *      LGT RAIN  73  72  94 SE13G18   29.79S
SHENANDOAH *   RAIN      70  68  94 S10G17    29.81R VSB 1
$$

IAZ047>049-059>061-072>074-084-161600-
   CENTRAL IOWA

CITY           SKY/WX    TMP DP  RH WIND       PRES   REMARKS
AMES           MOSUNNY   74  72  93 SE10      29.84F
ANKENY *       MOSUNNY   75  72  88 SE9       29.86S
BOONE *        MOSUNNY   73  70  88 SE13      29.83F
CHARITON *     PTSUNNY   75  72  88 S9G16     29.86S
DES MOINES     CLOUDY    76  71  85 SE8       29.84F
GRINNELL*      CLOUDY    73  70  88 SE13      29.89F
KNOXVILLE *    CLOUDY    77  72  83 SE10      29.86R
MARSHALLTOWN   PTSUNNY   75  71  87 SE15      29.87S
NEWTON *         N/A     73  72  94 SE12      29.87S
PELLA *        CLOUDY    76  71  83 SE7       29.88S
PERRY *          N/A     75  72  89 SE8       29.83S
$$

IAZ004>006-015-016-023>025-035-036-161600-
   NORTH CENTRAL IOWA

CITY           SKY/WX    TMP DP  RH WIND       PRES   REMARKS
ALGONA *       CLOUDY    70  70 100 SE7       29.86F FOG
CLARION *      CLOUDY    73  73 100 SE9G15    29.86F
ESTHERVILLE    CLOUDY    65  65 100 E8        29.85F FOG
FORT DODGE *   CLOUDY    73  68  83 E10       29.84F
MASON CITY     CLOUDY    68  66  93 SE14      29.90F FOG
FOREST CITY *  CLOUDY    68  68 100 SE10      29.88F FOG
WEBSTER CITY * CLOUDY    75  70  83 SE13G18   29.82F
IOWA FALLS *   CLOUDY    72  69  90 E10G17    29.89S
$$

IAZ007>011-017>019-026>030-037>042-050>054-066-161600-
   NORTHEAST IOWA

CITY           SKY/WX    TMP DP  RH WIND       PRES   REMARKS
CEDAR RAPIDS   MOSUNNY   75  71  87 E12       29.91F
CHARLES CITY * CLOUDY    72  70  94 SE12      29.91S
CLINTON *      CLOUDY    74  68  81 SE12      29.95F
DECORAH *      SUNNY     70  64  83 VRB6G14   29.94S
DUBUQUE        SUNNY     71  66  84 SE10      29.96F
MONTICELLO *   SUNNY     73  68  83 E7G14     29.93S
OELWEIN *      CLOUDY    72  70  94 SE12G17   29.92F
WATERLOO       CLOUDY    74  67  78 SE10      29.89F
$$

IAZ064-065-067-068-078-161600-
   EAST CENTRAL IOWA

CITY           SKY/WX    TMP DP  RH WIND       PRES   REMARKS
DAVENPORT      SUNNY     76  68  76 SE10      29.95F
IOWA CITY      SUNNY     77  70  79 E9        29.92F
MUSCATINE *    SUNNY     79  70  73 SE9       29.92S HX  81
QUAD CITIES    SUNNY     77  68  73 E9        29.93F
$$

IAZ062-063-075>077-085>089-095>099-161600-
   SOUTHEAST IOWA

CITY           SKY/WX    TMP DP  RH WIND       PRES   REMARKS
BURLINGTON     MOSUNNY   79  73  82 SE7       29.91F HX  82
FAIRFIELD *    PTSUNNY   79  72  78 SE13      29.89F HX  82
FORT MADISON * CLOUDY    79  73  83 SE9       29.92F HX  82
KEOKUK *       PTSUNNY   79  73  83 SE10      29.91S HX  82
OSKALOOSA *      N/A     76  72  85 S15       29.89S
OTTUMWA        PTSUNNY   78  73  84 S13       29.89S HX  81
WASHINGTON *   MOSUNNY   79  73  83 SE12      29.92S HX  82
$$

ABBREVIATIONS USED IN REMARKS
   TC - TEMPERATURES IN CELSIUS
  WCI - WIND CHILL INDEX
   HX - HEAT INDEX
  VSB - VISIBILITY
$$





USA.gov is the U.S. government's official web portal to all federal, state and local government web resources and services.